スキッフ彗星

223P/Skiff (2019)

English version
Home page
Updated on November 15, 2021

---------------------------------------------------------------------

・ プロフィール

・ 写真集

・ 軌道要素

Epoch 2021 July 5.0 TT = JDT 2459400.5                                          
T 2019 Jan. 27.55458 TT                                 Rudenko                 
q   2.4288608            (2000.0)            P               Q                  
n   0.11620064     Peri.   37.81538     +0.89401883     -0.43579534             
a   4.1590777      Node   346.77040     +0.21111858     +0.61448241             
e   0.4160098      Incl.   27.02443     +0.39516994     +0.65764260             
P   8.48                                                                        
From 797 observations 2001 July 27-2021 Mar. 19, mean residual 0".6.            
     Nongravitational parameters A1 = -0.39, A2 = +0.0009.                      

・ 光度変化

        m1 = 12.5 + 5 logΔ + 10.0 log r

---------------------------------------------------------------------

軌道要素はM.P.E.C. 2021-S45に掲載されたものです。
光度グラフはComet for Windowsで作成したものです。

---------------------------------------------------------------------

Copyright(C) Seiichi Yoshida (comet@aerith.net). All rights reserved.